Time,TemperatureF,DewpointF,PressureIn,WindDirection,WindDirectionDegrees,WindSpeedMPH,WindSpeedGustMPH,Humidity,HourlyPrecipIn,Conditions,Clouds,dailyrainin,SoftwareType,DateUTC
2013-06-01 00:01:00,68.0,41.0,29.99,WSW,243,22.0,29.0,37,0.00,,,0.00,,2013-06-01 07:01:00,
2013-06-01 00:11:00,68.0,41.0,29.99,WSW,243,22.0,29.0,37,0.00,,,0.00,,2013-06-01 07:11:00,
2013-06-01 00:21:00,68.0,41.0,29.99,WSW,241,19.0,28.0,37,0.00,,,0.00,,2013-06-01 07:21:00,
2013-06-01 00:31:00,66.0,40.0,29.99,WSW,246,19.0,28.0,38,0.00,,,0.00,,2013-06-01 07:31:00,
2013-06-01 00:41:00,67.0,40.0,29.98,SW,235,22.0,27.0,37,0.00,,,0.00,,2013-06-01 07:41:00,
2013-06-01 00:52:00,67.0,40.0,29.98,SW,235,22.0,27.0,37,0.00,,,0.00,,2013-06-01 07:52:00,
2013-06-01 01:01:00,67.0,40.0,29.98,WSW,238,20.0,29.0,37,0.00,,,0.00,,2013-06-01 08:01:00,
2013-06-01 01:11:00,66.0,40.0,29.98,WSW,238,19.0,29.0,38,0.00,,,0.00,,2013-06-01 08:11:00,
2013-06-01 01:21:00,66.0,40.0,29.98,WSW,238,19.0,29.0,38,0.00,,,0.00,,2013-06-01 08:21:00,
2013-06-01 01:32:00,65.0,40.0,29.97,WSW,239,19.0,28.0,40,0.00,,,0.00,,2013-06-01 08:32:00,
2013-06-01 01:42:00,64.0,40.0,29.97,WSW,238,18.0,26.0,41,0.00,,,0.00,,2013-06-01 08:42:00,
2013-06-01 01:52:00,64.0,40.0,29.97,WSW,238,18.0,26.0,41,0.00,,,0.00,,2013-06-01 08:52:00,
2013-06-01 02:01:00,65.0,40.0,29.97,WSW,239,20.0,26.0,40,0.00,,,0.00,,2013-06-01 09:01:00,
2013-06-01 02:12:00,65.0,40.0,29.97,WSW,239,20.0,26.0,40,0.00,,,0.00,,2013-06-01 09:12:00,
2013-06-01 02:21:00,64.0,40.0,29.97,WSW,240,19.0,26.0,41,0.00,,,0.00,,2013-06-01 09:21:00,
2013-06-01 02:32:00,64.0,40.0,29.97,WSW,237,18.0,26.0,41,0.00,,,0.00,,2013-06-01 09:32:00,
2013-06-01 02:42:00,64.0,40.0,29.97,WSW,237,18.0,26.0,41,0.00,,,0.00,,2013-06-01 09:42:00,
2013-06-01 02:53:00,63.0,40.0,29.97,WSW,241,18.0,27.0,42,0.00,,,0.00,,2013-06-01 09:53:00,
2013-06-01 03:02:00,63.0,40.0,29.96,SW,236,18.0,25.0,42,0.00,,,0.00,,2013-06-01 10:02:00,
2013-06-01 03:12:00,63.0,40.0,29.96,SW,236,18.0,25.0,42,0.00,,,0.00,,2013-06-01 10:12:00,
2013-06-01 03:22:00,63.0,40.0,29.96,WSW,237,17.0,25.0,42,0.00,,,0.00,,2013-06-01 10:22:00,
2013-06-01 03:32:00,63.0,40.0,29.96,WSW,239,18.0,25.0,42,0.00,,,0.00,,2013-06-01 10:32:00,
2013-06-01 03:42:00,63.0,40.0,29.96,SW,234,20.0,25.0,42,0.00,,,0.00,,2013-06-01 10:42:00,
2013-06-01 03:52:00,63.0,40.0,29.96,SW,234,20.0,25.0,42,0.00,,,0.00,,2013-06-01 10:52:00,
2013-06-01 04:02:00,63.0,40.0,29.96,SW,233,19.0,29.0,42,0.00,,,0.00,,2013-06-01 11:02:00,
2013-06-01 04:11:00,63.0,40.0,29.96,SW,233,19.0,29.0,42,0.00,,,0.00,,2013-06-01 11:11:00,
2013-06-01 04:21:00,63.0,40.0,29.96,SW,229,19.0,25.0,42,0.00,,,0.00,,2013-06-01 11:21:00,
2013-06-01 04:32:00,63.0,40.0,29.96,SW,230,19.0,26.0,42,0.00,,,0.00,,2013-06-01 11:32:00,
2013-06-01 04:42:00,63.0,40.0,29.97,SW,234,18.0,23.0,42,0.00,,,0.00,,2013-06-01 11:42:00,
2013-06-01 04:52:00,63.0,40.0,29.97,SW,234,18.0,23.0,42,0.00,,,0.00,,2013-06-01 11:52:00,
2013-06-01 05:01:00,62.0,39.0,29.97,SW,233,15.0,23.0,43,0.00,,,0.00,,2013-06-01 12:01:00,
2013-06-01 05:11:00,62.0,39.0,29.97,SW,233,15.0,23.0,43,0.00,,,0.00,,2013-06-01 12:11:00,
2013-06-01 05:21:00,63.0,40.0,29.97,SW,230,16.0,23.0,42,0.00,,,0.00,,2013-06-01 12:21:00,
2013-06-01 05:32:00,62.0,39.0,29.97,SW,223,16.0,22.0,42,0.00,,,0.00,,2013-06-01 12:32:00,
2013-06-01 05:41:00,62.0,40.0,29.97,SW,220,17.0,22.0,44,0.00,,,0.00,,2013-06-01 12:41:00,
2013-06-01 05:52:00,62.0,40.0,29.97,SW,220,17.0,22.0,44,0.00,,,0.00,,2013-06-01 12:52:00,
2013-06-01 06:01:00,61.0,39.0,29.97,SW,218,18.0,21.0,44,0.00,,,0.00,,2013-06-01 13:01:00,
2013-06-01 06:11:00,61.0,39.0,29.97,SW,218,18.0,21.0,44,0.00,,,0.00,,2013-06-01 13:11:00,
2013-06-01 06:22:00,62.0,40.0,29.98,SW,220,17.0,22.0,44,0.00,,,0.00,,2013-06-01 13:22:00,
2013-06-01 06:32:00,63.0,40.0,29.98,SW,224,15.0,21.0,42,0.00,,,0.00,,2013-06-01 13:32:00,
2013-06-01 06:42:00,63.0,40.0,29.98,SSW,213,15.0,21.0,42,0.00,,,0.00,,2013-06-01 13:42:00,
2013-06-01 06:52:00,63.0,40.0,29.98,SSW,213,15.0,21.0,42,0.00,,,0.00,,2013-06-01 13:52:00,
2013-06-01 07:01:00,64.0,40.0,29.96,SSW,209,16.0,23.0,41,0.00,,,0.00,,2013-06-01 14:01:00,
2013-06-01 07:21:00,65.0,40.0,29.96,SW,224,18.0,23.0,40,0.00,,,0.00,,2013-06-01 14:21:00,
2013-06-01 07:32:00,66.0,40.0,29.96,SW,228,18.0,22.0,39,0.00,,,0.00,,2013-06-01 14:32:00,
2013-06-01 07:42:00,66.0,40.0,29.96,SW,228,18.0,22.0,39,0.00,,,0.00,,2013-06-01 14:42:00,
2013-06-01 07:52:00,68.0,41.0,29.97,SW,220,16.0,21.0,37,0.00,,,0.00,,2013-06-01 14:52:00,
2013-06-01 08:01:00,69.0,41.0,29.97,SW,220,15.0,21.0,36,0.00,,,0.00,,2013-06-01 15:01:00,
2013-06-01 08:11:00,69.0,41.0,29.97,SW,220,15.0,21.0,36,0.00,,,0.00,,2013-06-01 15:11:00,
2013-06-01 08:21:00,71.0,41.0,29.97,SW,216,13.0,16.0,34,0.00,,,0.00,,2013-06-01 15:21:00,
2013-06-01 08:33:00,74.0,41.0,29.97,SW,228,9.0,14.0,30,0.00,,,0.00,,2013-06-01 15:33:00,
2013-06-01 08:53:00,77.0,38.0,29.98,WSW,242,5.0,11.0,25,0.00,,,0.00,,2013-06-01 15:53:00,
2013-06-01 09:03:00,80.0,34.0,29.97,North,0,0.0,5.0,19,0.00,,,0.00,,2013-06-01 16:03:00,
2013-06-01 09:33:00,84.0,24.0,29.97,East,93,11.0,16.0,11,0.00,,,0.00,,2013-06-01 16:33:00,
2013-06-01 09:42:00,84.0,19.0,29.97,East,95,13.0,19.0,9,0.00,,,0.00,,2013-06-01 16:42:00,
2013-06-01 10:02:00,85.0,17.0,29.96,East,89,14.0,18.0,8,0.00,,,0.00,,2013-06-01 17:02:00,
2013-06-01 10:32:00,86.0,15.0,29.97,East,90,13.0,22.0,7,0.00,,,0.00,,2013-06-01 17:32:00,
2013-06-01 11:01:00,87.0,12.0,29.98,ENE,72,14.0,19.0,6,0.00,,,0.00,,2013-06-01 18:01:00,
2013-06-01 11:21:00,86.0,15.0,29.98,East,88,14.0,22.0,7,0.00,,,0.00,,2013-06-01 18:21:00,
2013-06-01 11:32:00,86.0,15.0,29.98,East,87,12.0,21.0,7,0.00,,,0.00,,2013-06-01 18:32:00,
2013-06-01 11:41:00,86.0,15.0,29.98,East,87,12.0,21.0,7,0.00,,,0.00,,2013-06-01 18:41:00,
2013-06-01 11:52:00,86.0,15.0,29.98,East,86,12.0,19.0,7,0.00,,,0.00,,2013-06-01 18:52:00,
2013-06-01 12:01:00,87.0,16.0,29.97,East,88,9.0,18.0,7,0.00,,,0.00,,2013-06-01 19:01:00,
2013-06-01 12:11:00,87.0,16.0,29.97,East,88,13.0,18.0,7,0.00,,,0.00,,2013-06-01 19:11:00,
2013-06-01 12:21:00,87.0,16.0,29.97,East,88,13.0,18.0,7,0.00,,,0.00,,2013-06-01 19:21:00,
2013-06-01 12:32:00,87.0,16.0,29.97,East,89,11.0,18.0,7,0.00,,,0.00,,2013-06-01 19:32:00,
2013-06-01 12:41:00,87.0,16.0,29.97,East,89,11.0,18.0,7,0.00,,,0.00,,2013-06-01 19:41:00,
2013-06-01 12:52:00,88.0,16.0,29.96,East,101,7.0,17.0,7,0.00,,,0.00,,2013-06-01 19:52:00,
2013-06-01 13:01:00,88.0,16.0,29.96,East,91,10.0,18.0,7,0.00,,,0.00,,2013-06-01 20:01:00,
2013-06-01 13:11:00,88.0,16.0,29.96,East,91,10.0,18.0,7,0.00,,,0.00,,2013-06-01 20:11:00,
2013-06-01 13:21:00,90.0,18.0,29.97,East,79,8.0,15.0,7,0.00,,,0.00,,2013-06-01 20:21:00,
2013-06-01 13:32:00,90.0,14.0,29.97,ENE,77,8.0,18.0,6,0.00,,,0.00,,2013-06-01 20:32:00,
2013-06-01 13:41:00,89.0,9.0,29.96,ESE,107,6.0,18.0,5,0.00,,,0.00,,2013-06-01 20:41:00,
2013-06-01 13:52:00,89.0,9.0,29.96,ESE,107,6.0,18.0,5,0.00,,,0.00,,2013-06-01 20:52:00,
2013-06-01 14:01:00,90.0,14.0,29.96,ENE,65,4.0,14.0,6,0.00,,,0.00,,2013-06-01 21:01:00,
2013-06-01 14:11:00,90.0,18.0,29.96,ENE,64,2.0,11.0,7,0.00,,,0.00,,2013-06-01 21:11:00,
2013-06-01 14:21:00,90.0,18.0,29.96,ENE,64,2.0,11.0,7,0.00,,,0.00,,2013-06-01 21:21:00,
2013-06-01 14:33:00,91.0,18.0,29.95,ENE,73,5.0,14.0,7,0.00,,,0.00,,2013-06-01 21:33:00,
2013-06-01 14:42:00,91.0,18.0,29.95,ENE,73,5.0,14.0,7,0.00,,,0.00,,2013-06-01 21:42:00,
2013-06-01 14:53:00,92.0,16.0,29.94,NE,56,9.0,18.0,6,0.00,,,0.00,,2013-06-01 21:53:00,
2013-06-01 15:02:00,91.0,11.0,29.94,ESE,112,11.0,15.0,5,0.00,,,0.00,,2013-06-01 22:02:00,
2013-06-01 15:12:00,92.0,11.0,29.94,SSW,209,5.0,8.0,5,0.00,,,0.00,,2013-06-01 22:12:00,
2013-06-01 15:22:00,92.0,11.0,29.94,SSW,209,5.0,8.0,5,0.00,,,0.00,,2013-06-01 22:22:00,
2013-06-01 15:33:00,90.0,14.0,29.93,ESE,123,5.0,10.0,6,0.00,,,0.00,,2013-06-01 22:33:00,
2013-06-01 15:42:00,91.0,11.0,29.93,ESE,116,9.0,16.0,5,0.00,,,0.00,,2013-06-01 22:42:00,
2013-06-01 15:53:00,91.0,11.0,29.93,ESE,116,9.0,16.0,5,0.00,,,0.00,,2013-06-01 22:53:00,
2013-06-01 16:01:00,92.0,11.0,29.92,SW,214,9.0,12.0,5,0.00,,,0.00,,2013-06-01 23:01:00,
2013-06-01 16:11:00,91.0,11.0,29.92,South,178,5.0,10.0,5,0.00,,,0.00,,2013-06-01 23:11:00,
2013-06-01 16:32:00,91.0,11.0,29.91,West,279,4.0,8.0,5,0.00,,,0.00,,2013-06-01 23:32:00,
2013-06-01 16:42:00,91.0,11.0,29.91,West,279,4.0,8.0,5,0.00,,,0.00,,2013-06-01 23:42:00,
2013-06-01 16:52:00,92.0,11.0,29.91,North,0,0.0,7.0,5,0.00,,,0.00,,2013-06-01 23:52:00,
2013-06-01 17:01:00,91.0,11.0,29.90,SW,222,7.0,12.0,5,0.00,,,0.00,,2013-06-02 00:01:00,
2013-06-01 17:21:00,91.0,11.0,29.90,SSE,147,2.0,10.0,5,0.00,,,0.00,,2013-06-02 00:21:00,
2013-06-01 17:31:00,90.0,21.0,29.89,SE,126,7.0,12.0,8,0.00,,,0.00,,2013-06-02 00:31:00,
2013-06-01 17:41:00,90.0,21.0,29.89,SE,126,7.0,12.0,8,0.00,,,0.00,,2013-06-02 00:41:00,
2013-06-01 18:01:00,89.0,38.0,29.89,West,260,12.0,16.0,17,0.00,,,0.00,,2013-06-02 01:01:00,
2013-06-01 18:32:00,85.0,41.0,29.88,WSW,239,16.0,22.0,21,0.00,,,0.00,,2013-06-02 01:32:00,
2013-06-01 18:41:00,84.0,43.0,29.88,SW,233,17.0,21.0,24,0.00,,,0.00,,2013-06-02 01:41:00,
2013-06-01 19:01:00,82.0,43.0,29.88,WSW,239,15.0,22.0,25,0.00,,,0.00,,2013-06-02 02:01:00,
2013-06-01 19:12:00,82.0,43.0,29.88,WSW,239,15.0,22.0,25,0.00,,,0.00,,2013-06-02 02:12:00,
2013-06-01 19:21:00,82.0,43.0,29.88,WSW,247,17.0,21.0,25,0.00,,,0.00,,2013-06-02 02:21:00,
2013-06-01 19:32:00,80.0,43.0,29.88,West,260,17.0,24.0,27,0.00,,,0.00,,2013-06-02 02:32:00,
2013-06-01 19:41:00,80.0,43.0,29.88,West,260,17.0,24.0,27,0.00,,,0.00,,2013-06-02 02:41:00,
2013-06-01 19:52:00,79.0,44.0,29.88,WSW,247,19.0,24.0,29,0.00,,,0.00,,2013-06-02 02:52:00,
2013-06-01 20:01:00,78.0,44.0,29.88,WSW,242,19.0,26.0,30,0.00,,,0.00,,2013-06-02 03:01:00,
2013-06-01 20:11:00,78.0,44.0,29.88,WSW,242,19.0,26.0,30,0.00,,,0.00,,2013-06-02 03:11:00,
2013-06-01 20:21:00,77.0,44.0,29.88,WSW,246,16.0,28.0,31,0.00,,,0.00,,2013-06-02 03:21:00,
2013-06-01 20:33:00,76.0,44.0,29.88,WSW,245,23.0,28.0,32,0.00,,,0.00,,2013-06-02 03:33:00,
2013-06-01 20:43:00,76.0,44.0,29.88,WSW,245,23.0,28.0,32,0.00,,,0.00,,2013-06-02 03:43:00,
2013-06-01 20:53:00,76.0,44.0,29.88,WSW,242,20.0,28.0,32,0.00,,,0.00,,2013-06-02 03:53:00,
2013-06-01 21:02:00,77.0,43.0,29.88,SW,233,21.0,27.0,30,0.00,,,0.00,,2013-06-02 04:02:00,
2013-06-01 21:12:00,77.0,43.0,29.88,SW,233,21.0,27.0,30,0.00,,,0.00,,2013-06-02 04:12:00,
2013-06-01 21:23:00,76.0,42.0,29.88,SW,236,19.0,23.0,30,0.00,,,0.00,,2013-06-02 04:23:00,
2013-06-01 21:32:00,78.0,37.0,29.88,West,260,13.0,19.0,23,0.00,,,0.00,,2013-06-02 04:32:00,
2013-06-01 21:42:00,78.0,37.0,29.88,West,260,13.0,19.0,23,0.00,,,0.00,,2013-06-02 04:42:00,
2013-06-01 21:53:00,80.0,35.0,29.88,WNW,290,13.0,19.0,20,0.00,,,0.00,,2013-06-02 04:53:00,
2013-06-01 22:02:00,82.0,26.0,29.88,WNW,297,17.0,23.0,13,0.00,,,0.00,,2013-06-02 05:02:00,
2013-06-01 22:32:00,81.0,29.0,29.88,WNW,295,14.0,22.0,15,0.00,,,0.00,,2013-06-02 05:32:00,
2013-06-01 23:01:00,82.0,26.0,29.87,WNW,289,16.0,21.0,13,0.00,,,0.00,,2013-06-02 06:01:00,
2013-06-01 23:12:00,82.0,26.0,29.87,WNW,287,15.0,21.0,13,0.00,,,0.00,,2013-06-02 06:12:00,
2013-06-01 23:31:00,82.0,22.0,29.87,West,281,14.0,19.0,11,0.00,,,0.00,,2013-06-02 06:31:00,